This demonstration page uses our WeatherBlox Daily Observations layout. Learn more.

Left ArrowRight Arrow

39.51506, -84.39828

Hourly Observations for October 21, 2021

Temp ( °F °C ) Dew Point ( °F °C ) Humidity (%) Winds ( mph kmh ) Pressure ( in mb ) Visibility ( mi km ) Precip ( " mm )
12:15 am 00:15 Clear 54 12.2 52 11.3 94 94 N N/A 30.07 1018 10 16 N/A
12:35 am 00:35 Clear 54 12 52 11 94 94 WSW 3 6 30.07 1018 10 16 N/A
12:55 am 00:55 Clear 54 12 N/A N/A SW 5 7 30.06 1018 10 16 N/A
1:15 am 01:15 Clear 52 11 N/A N/A WSW 5 7 30.07 1018 10 16 N/A
1:35 am 01:35 Clear 52 11 N/A N/A WSW 3 6 30.06 1018 10 16 N/A
1:55 am 01:55 Clear 50 10 N/A N/A WSW 3 6 30.06 1018 10 16 N/A
2:15 am 02:15 Clear 50 10 N/A N/A N N/A 30.05 1018 10 16 N/A
2:35 am 02:35 Clear 52 11 N/A N/A SW 3 6 30.05 1017 10 16 N/A
2:55 am 02:55 Clear 52 11 N/A N/A SW 6 9 30.04 1017 10 16 N/A
3:15 am 03:15 Clear 52 11 N/A N/A SSW 6 9 30.03 1017 10 16 N/A
3:35 am 03:35 Clear 52 11 N/A N/A SSW 6 9 30.03 1017 10 16 N/A
3:55 am 03:55 Clear 50 10 N/A N/A SW 5 7 30.02 1017 10 16 N/A
4:15 am 04:15 Clear 50 10 N/A N/A SSW 6 9 30.01 1016 10 16 N/A
4:35 am 04:35 Clear 50 10 N/A N/A SSW 6 9 30.01 1016 10 16 N/A
4:55 am 04:55 Clear 50 10 N/A N/A S 7 11 30.00 1016 10 16 N/A
5:15 am 05:15 Clear 55 13 N/A N/A S 9 15 29.98 1015 10 16 N/A
5:35 am 05:35 Clear 56 13.4 55 12.7 96 96 SSW 8 13 29.98 1015 10 16 N/A
5:55 am 05:55 Clear 56 13.5 55 12.9 96 96 SSW 8 13 29.97 1015 10 16 N/A
6:15 am 06:15 Clear 57 13.7 56 13.1 96 96 SSW 8 13 29.97 1015 10 16 N/A
6:35 am 06:35 Clear 58 14.2 56 13.5 96 96 SSW 9 15 29.96 1015 10 16 N/A
6:55 am 06:55 Clear with Nearby Thunderstorms 58 14.2 56 13.6 96 96 S 8 13 29.96 1015 10 16 N/A
7:15 am 07:15 Partly Cloudy with Nearby Thunderstorms 58 14.5 57 13.9 96 96 S 8 13 29.96 1014 10 16 N/A
7:35 am 07:35 Cloudy 59 15 58 14.2 95 95 SSW 8 13 29.96 1014 10 16 N/A
7:55 am 07:55 Cloudy 59 15.1 58 14.4 96 96 SSW 8 13 29.95 1014 10 16 N/A
8:15 am 08:15 Cloudy with Light Rain 60 15.3 58 14.6 96 96 SSW 8 13 29.95 1014 10 16 N/A
8:35 am 08:35 Cloudy 59 15.1 59 15 99 99 S 6 9 29.94 1014 10 16 N/A
8:55 am 08:55 Cloudy 60 15.3 60 15.3 100 100 S 5 7 29.95 1014 10 16 N/A
9:15 am 09:15 Cloudy 61 16 59 15 94 94 SSW 6 9 29.94 1014 10 16 N/A
9:35 am 09:35 Cloudy 62 16.4 61 16.3 99 99 SSW 7 11 29.93 1014 10 16 N/A
9:55 am 09:55 Cloudy 63 17.2 62 16.7 97 97 SW 10 17 29.93 1014 10 16 N/A
10:15 am 10:15 Cloudy 63 17.4 62 16.7 96 96 SW 12 19 29.92 1013 10 16 N/A
10:35 am 10:35 Cloudy 64 17.6 62 16.8 95 95 SW 12 19 29.92 1013 10 16 N/A
10:55 am 10:55 Cloudy 64 17.9 62 16.8 93 93 SW 13 20 29.92 1013 10 16 N/A
11:15 am 11:15 Cloudy 64 18 62 16.8 93 93 SW 13 20 29.92 1013 10 16 N/A
11:35 am 11:35 Cloudy 65 18.3 63 17 92 92 SW 13 20 29.91 1013 10 16 N/A
11:55 am 11:55 Cloudy 66 18.9 63 17.1 89 89 SSW 14 22 29.91 1013 10 16 N/A
12:15 pm 12:15 Cloudy 66 19.1 63 17.1 88 88 SW 14 22 29.90 1012 10 16 N/A
12:35 pm 12:35 Cloudy 68 20.1 62 16.8 81 81 SW 16 26 29.88 1012 10 16 N/A
12:55 pm 12:55 Mostly Cloudy 70 21 62 16.8 77 77 SSW 18 30 29.87 1012 10 16 N/A
1:15 pm 13:15 Partly Cloudy 71 21.4 61 16 71 71 SSW 15 24 29.85 1011 10 16 N/A
1:35 pm 13:35 Partly Cloudy 70 21.1 60 15.4 70 70 SW 16 26 29.85 1011 10 16 N/A
1:55 pm 13:55 Partly Cloudy 73 22.5 60 15.5 65 65 SW 14 22 29.84 1010 10 16 N/A
2:15 pm 14:15 Mostly Cloudy 72 22.4 54 12.3 53 53 W 24 39 29.83 1010 10 16 N/A
2:35 pm 14:35 Partly Cloudy 73 22.8 54 12.2 51 51 W 22 35 29.83 1010 10 16 N/A
2:55 pm 14:55 Mostly Cloudy 72 22.1 51 10.5 48 48 W 25 41 29.84 1010 10 16 N/A
3:15 pm 15:15 Mostly Cloudy 70 21.2 50 10.2 50 50 W 21 33 29.84 1011 10 16 N/A
3:35 pm 15:35 Partly Cloudy 69 20.5 49 9.2 48 48 W 23 37 29.86 1011 10 16 N/A
3:55 pm 15:55 Sunny 68 20.1 46 7.9 45 45 W 20 31 29.87 1012 10 16 N/A
4:15 pm 16:15 Partly Cloudy 65 18.5 45 7 47 47 W 17 28 29.89 1012 10 16 N/A
4:35 pm 16:35 Partly Cloudy 67 19.3 45 7.3 46 46 W 20 31 29.90 1012 10 16 N/A
4:55 pm 16:55 Partly Cloudy 65 18.5 46 7.5 49 49 W 16 26 29.91 1013 10 16 N/A
5:15 pm 17:15 Partly Cloudy 62 16.9 46 8 56 56 W 14 22 29.92 1013 10 16 N/A
5:35 pm 17:35 Partly Cloudy 63 17 46 8 56 56 WNW 15 24 29.92 1013 10 16 N/A
5:55 pm 17:55 Partly Cloudy 60 15.7 46 7.7 59 59 W 18 30 29.93 1014 10 16 N/A
6:15 pm 18:15 Mostly Cloudy 59 15.2 46 8 62 62 WNW 16 26 29.96 1014 10 16 N/A
6:35 pm 18:35 Cloudy 58 14.6 46 7.8 64 64 WNW 10 17 29.97 1015 10 16 N/A
6:55 pm 18:55 Cloudy 58 14.2 46 7.5 64 64 W 13 20 29.97 1015 10 16 N/A
7:15 pm 19:15 Mostly Cloudy 56 13.5 45 7.2 66 66 W 10 17 29.98 1015 10 16 N/A
7:35 pm 19:35 Clear 55 12.9 44 6.9 67 67 WNW 13 20 29.99 1016 10 16 N/A
7:55 pm 19:55 Clear 54 12.3 45 7 70 70 W 13 20 30.00 1016 10 16 N/A
8:15 pm 20:15 Clear 53 11.8 45 7.1 73 73 W 8 13 30.00 1016 10 16 N/A
8:35 pm 20:35 Clear 53 11.5 45 7.2 75 75 W 6 9 30.02 1016 10 16 N/A
8:55 pm 20:55 Clear 52 10.9 45 7.3 79 79 SSW 3 6 30.02 1016 10 16 N/A
9:15 pm 21:15 Clear 50 10.1 46 7.5 84 84 SW 6 9 30.02 1017 10 16 N/A
9:35 pm 21:35 Clear 49 9.4 46 7.5 88 88 N N/A 30.03 1017 10 16 N/A
9:55 pm 21:55 Partly Cloudy 48 8.7 46 7.7 94 94 SW 5 7 30.04 1017 10 16 N/A
10:15 pm 22:15 Partly Cloudy 46 8 46 8 100 100 WSW 5 7 30.04 1017 10 16 N/A
10:35 pm 22:35 Mostly Cloudy 48 8.8 47 8.4 97 97 SW 3 6 30.04 1017 10 16 N/A
10:55 pm 22:55 Cloudy 46 8 46 8 100 100 SW 5 7 30.05 1018 10 16 N/A
11:15 pm 23:15 Cloudy 48 9 N/A N/A N N/A 30.05 1018 10 16 N/A
11:35 pm 23:35 Mostly Cloudy 49 9.3 47 8.6 95 95 SW 5 7 30.05 1018 10 16 N/A
11:55 pm 23:55 Partly Cloudy 48 8.9 47 8.4 97 97 W 3 6 30.04 1017 10 16 N/A

Powered by AerisWeather